Regional Weather Roundup
Issued by NWS Portland, ME

Current Version | Previous Version | Text Only | Print | Product List | Glossary Off
Versions: 1 2 3 4 5 6 7 8 9 10 11 12 13 14 15 16 17 18 19 20 21 22 23 24 25 26 27 28 29 30 31 32 33 34 35 36 37 38 39 40 41 42 43 44 45 46 47 48 49 50
000 ASUS41 KGYX 250105 RWRGYX WEATHER ROUNDUP FOR MAINE AND NEW HAMPSHIRE NATIONAL WEATHER SERVICE GRAY ME 900 PM EDT SAT JUN 24 2017 MEZ002-005-006-010-012-015-018-020-021-024-026-027-029-250200- MAINE CITY SKY/WX TMP DP RH WIND PRES REMARKS PORTLAND CLEAR 77 55 46 W8 29.71R SANFORD CLEAR 67 60 78 SW3 29.74R BAR HARBOR CLEAR 72 57 59 W5 29.67R WISCASSET CLEAR 66 64 93 CALM 29.70R ROCKLAND CLEAR 67 60 78 CALM 29.68R FRYEBURG CLEAR 66 59 78 SW3 29.73R AUGUSTA CLEAR 73 55 53 W6 29.69R WATERVILLE CLEAR 68 57 68 CALM 29.67R BANGOR PTCLDY 66 57 72 SW5 29.66R GREENVILLE N/A 62 54 74 NW9 29.69R MILLINOCKET CLEAR 64 58 80 CALM 29.65R HOULTON CLEAR 62 61 96 SW5 29.61R PRESQUE ISLE CLOUDY 68 57 68 N16 29.63R FRENCHVILLE CLOUDY 61 49 64 NW8 29.62R CARIBOU RAIN 63 57 81 NW10 29.62R $$ NHZ002-005-008-009-011-012-014-250200- NEW HAMPSHIRE CITY SKY/WX TMP DP RH WIND PRES REMARKS PORTSMOUTH PTCLDY 75 60 58 W3 29.72R ROCHESTER CLEAR 75 55 49 VRB5 29.73R NASHUA CLEAR 75 57 53 W6 29.78R MANCHESTER PTCLDY 78 53 41 W5 29.75R CONCORD CLEAR 75 52 44 W7 29.76R LACONIA CLEAR N/A N/A N/A W9 29.76R PLYMOUTH FAIR 72 51 47 SW3 29.75R BERLIN CLOUDY 64 58 80 N8 29.76R WHITEFIELD MOCLDY 70 53 54 SW5 29.76R JAFFREY CLEAR 71 56 58 S5 29.82R KEENE CLEAR 67 60 78 S3 29.81R LEBANON CLEAR 74 50 42 W6 29.77R MT WASHINGTON FOG 46 45 93 W60 N/A VSB 1/8 $$ VTZ005-007-008-250200- VERMONT CITY SKY/WX TMP DP RH WIND PRES REMARKS ST JOHNSBURY N/A 69 57 65 MISG 29.74R MONTPELIER CLEAR 67 51 56 CALM 29.80 BURLINGTON PTCLDY 74 51 44 W10 29.76R $$ MAZ007-012-024-CTZ003-RIZ002-NYZ038-NYZ072-250200- SOUTHERN NEW ENGLAND AND NY CITY SKY/WX TMP DP RH WIND PRES REMARKS BOSTON PTCLDY 79 56 45 W14G24 29.76R WORCESTER CLEAR 70 49 47 W6 29.83R NANTUCKET PTCLDY 67 61 81 W13 29.79R PROVIDENCE PTCLDY 75 56 51 W6 29.80R HARTFORD PTCLDY 73 58 59 W3 29.80R ALBANY CLOUDY 69 59 70 W9 29.83R NEW YORK CITY PTCLDY 84 57 39 SW12 29.82S $$ ANZ081-ANZ082-ANZ150-NHZ014-MEZ023>029-250200- COASTAL MARINE OBSERVATIONS STATION/POSITION TIME TEMP WIND PRES WAVE AIR SEA DIR/SP/G HT/PER (UTC) (F) (DEG/KT/KT) (MB) (FT/S) MATINICUS ROCK 0000 65 260/ 16/ 17 1003.9R ISLE OF SHOALS 0000 81 280/ 13/ 14 1005.3R JEFFREYS LEDGE 0006 61 N/A 3/ 6 CASHES LEDGE BUO 2350 63 60 1004.9 4/ 6 GEORGES BANK BUO 2350 58 52 1006.1 9/ 8 $$ .............KEY.............. WCI - WIND CHILL TC - TEMPERATURE IN CELSIUS VSB - VISIBILITY IN MILES HX - HEAT INDEX FAIR- INDICATES FEW OR NO CLOUDS BELOW 12,000 FT, WITH NO SIGNIFICANT WEATHER AND/OR OBSTRUCTIONS TO VISIBILITY.

USA.gov is the U.S. government's official web portal to all federal, state and local government web resources and services.